START_TIME,STEP,MOV.,M6,t_acc.,M7,t_acc.,M19,t_acc.,H36,t_acc.
1979-07-16 03:00:27.290 ,1,0,1.,12.0,0.,12.0,0.,12.0,0.,12.0
1979-07-16 03:00:39.290 ,1,0,0.,12.0,0.,12.0,0.,12.0,0.,12.0
1979-07-16 03:00:51.290 ,2,1,0.,12.0,0.,12.0,0.,12.0,0.,12.0
1979-07-16 03:01:03.290 ,2,1,0.,12.0,0.,12.0,0.,12.0,0.,12.0
1979-07-16 03:01:15.290 ,2,0,0.,12.0,0.,12.0,0.,12.0,2.,12.0
1979-07-16 03:01:27.290 ,2,0,0.,12.0,0.,12.0,0.,12.0,0.,12.0
1979-07-16 03:01:39.290 ,3,1,0.,12.0,0.,12.0,0.,12.0,0.,12.0
1979-07-16 03:01:51.290 ,3,1,0.,12.0,0.,12.0,0.,12.0,0.,12.0
1979-07-16 03:02:03.290 ,3,0,0.,12.0,0.,12.0,0.,12.0,0.,12.0
1979-07-16 03:02:15.290 ,3,0,0.,12.0,0.,12.0,0.,12.0,0.,12.0
1979-07-16 03:02:27.290 ,4,1,0.,12.0,0.,12.0,0.,12.0,0.,12.0
1979-07-16 03:02:39.290 ,4,1,0.,12.0,0.,12.0,0.,12.0,0.,12.0
1979-07-16 03:02:51.290 ,4,0,0.,12.0,0.,12.0,0.,12.0,0.,12.0
1979-07-16 03:03:03.290 ,4,0,0.,12.0,0.,12.0,0.,12.0,0.,12.0
1979-07-16 03:03:15.290 ,5,1,0.,12.0,0.,12.0,0.,12.0,0.,12.0
1979-07-16 03:03:27.290 ,5,1,0.,12.0,0.,12.0,0.,12.0,0.,12.0
1979-07-16 03:03:39.290 ,5,0,0.,12.0,0.,12.0,0.,12.0,0.,12.0
1979-07-16 03:03:51.290 ,5,0,0.,12.0,0.,12.0,0.,12.0,0.,12.0
1979-07-16 03:04:03.290 ,6,1,0.,12.0,0.,12.0,0.,12.0,0.,12.0
1979-07-16 03:04:15.290 ,6,1,0.,12.0,0.,12.0,0.,12.0,0.,12.0
1979-07-16 03:04:27.290 ,6,0,0.,12.0,0.,12.0,0.,12.0,0.,12.0
1979-07-16 03:04:39.290 ,6,0,0.,12.0,0.,12.0,0.,12.0,0.,12.0
1979-07-16 03:04:51.290 ,7,1,0.,12.0,0.,12.0,0.,12.0,0.,12.0
1979-07-16 03:05:03.290 ,7,1,0.,12.0,0.,12.0,0.,12.0,0.,12.0
1979-07-16 03:05:15.290 ,7,0,0.,12.0,0.,12.0,0.,12.0,0.,12.0
1979-07-16 03:05:27.290 ,7,0,0.,12.0,0.,12.0,0.,12.0,0.,12.0
1979-07-16 03:05:39.290 ,7,1,0.,12.0,0.,12.0,0.,12.0,0.,12.0
1979-07-16 03:05:51.290 ,7,1,0.,12.0,0.,12.0,0.,12.0,0.,12.0
1979-07-16 03:06:03.290 ,7,0,0.,12.0,0.,12.0,0.,12.0,0.,12.0
1979-07-16 03:06:15.290 ,7,0,0.,12.0,0.,12.0,0.,12.0,0.,12.0
1979-07-16 03:06:27.290 ,6,1,0.,12.0,0.,12.0,0.,12.0,0.,12.0
1979-07-16 03:06:39.290 ,6,1,0.,12.0,0.,12.0,0.,12.0,0.,12.0
1979-07-16 03:06:51.290 ,6,0,0.,12.0,0.,12.0,0.,12.0,0.,12.0
1979-07-16 03:07:03.290 ,6,0,0.,12.0,0.,12.0,0.,12.0,0.,12.0
1979-07-16 03:07:15.290 ,5,1,0.,12.0,0.,12.0,0.,12.0,0.,12.0
1979-07-16 03:07:27.290 ,5,1,0.,12.0,0.,12.0,0.,12.0,0.,12.0
1979-07-16 03:07:39.290 ,5,0,0.,12.0,0.,12.0,0.,12.0,0.,12.0
1979-07-16 03:07:51.290 ,5,0,0.,12.0,0.,12.0,0.,12.0,0.,12.0
1979-07-16 03:08:03.290 ,4,1,0.,12.0,0.,12.0,0.,12.0,0.,12.0
1979-07-16 03:08:15.290 ,4,1,0.,12.0,0.,12.0,0.,12.0,0.,12.0
1979-07-16 03:08:27.290 ,4,0,0.,12.0,0.,12.0,0.,12.0,0.,12.0
1979-07-16 03:08:39.290 ,4,0,0.,12.0,0.,12.0,0.,12.0,0.,12.0
1979-07-16 03:08:51.290 ,3,1,0.,12.0,0.,12.0,0.,12.0,0.,12.0
1979-07-16 03:09:03.290 ,3,1,0.,12.0,0.,12.0,0.,12.0,0.,12.0
1979-07-16 03:09:15.290 ,3,0,0.,12.0,0.,12.0,0.,12.0,0.,12.0
1979-07-16 03:09:27.290 ,3,0,0.,12.0,0.,12.0,0.,12.0,0.,12.0
1979-07-16 03:09:39.290 ,2,1,0.,12.0,0.,12.0,0.,12.0,0.,12.0
1979-07-16 03:09:51.290 ,2,1,0.,12.0,0.,12.0,0.,12.0,0.,12.0
1979-07-16 03:10:03.290 ,2,0,0.,12.0,0.,12.0,0.,12.0,0.,12.0
1979-07-16 03:10:15.290 ,2,0,0.,12.0,0.,12.0,0.,12.0,0.,12.0
1979-07-16 03:10:27.290 ,1,1,0.,12.0,0.,12.0,0.,12.0,0.,12.0
1979-07-16 03:10:39.290 ,1,1,0.,12.0,0.,12.0,0.,12.0,0.,12.0
1979-07-16 03:10:51.290 ,1,0,0.,12.0,0.,12.0,0.,12.0,0.,12.0
1979-07-16 03:11:03.290 ,1,0,0.,12.0,0.,12.0,0.,12.0,0.,12.0
1979-07-16 03:11:15.290 ,0,1,0.,12.0,0.,12.0,0.,12.0,0.,12.0
1979-07-16 03:11:27.290 ,0,1,0.,12.0,0.,12.0,0.,12.0,0.,12.0
1979-07-16 03:11:39.290 ,0,0,0.,12.0,0.,12.0,0.,12.0,0.,12.0
1979-07-16 03:11:51.290 ,0,0,0.,12.0,0.,12.0,0.,12.0,0.,12.0
1979-07-16 03:12:03.290 ,0,1,0.,12.0,0.,12.0,0.,12.0,0.,12.0
1979-07-16 03:12:15.290 ,0,1,0.,12.0,0.,12.0,0.,12.0,0.,12.0
1979-07-16 03:12:27.290 ,0,0,0.,12.0,0.,12.0,0.,12.0,0.,12.0
1979-07-16 03:12:39.290 ,0,0,0.,12.0,0.,12.0,0.,12.0,0.,12.0
1979-07-16 03:12:51.290 ,1,1,0.,12.0,0.,12.0,0.,12.0,0.,12.0
1979-07-16 03:13:03.290 ,1,1,0.,12.0,0.,12.0,0.,12.0,0.,12.0
1979-07-16 03:13:15.290 ,1,0,0.,12.0,0.,12.0,0.,12.0,0.,12.0
1979-07-16 03:13:27.290 ,1,0,0.,12.0,0.,12.0,0.,12.0,0.,12.0
1979-07-16 03:13:39.290 ,2,1,0.,12.0,0.,12.0,0.,12.0,0.,12.0
1979-07-16 03:13:51.290 ,2,1,0.,12.0,0.,12.0,0.,12.0,1.,12.0
1979-07-16 03:14:03.290 ,2,0,0.,12.0,0.,12.0,0.,12.0,0.,12.0
1979-07-16 03:14:15.290 ,2,0,0.,12.0,0.,12.0,0.,12.0,0.,12.0
1979-07-16 03:14:27.290 ,3,1,0.,12.0,0.,12.0,0.,12.0,0.,12.0
1979-07-16 03:14:39.290 ,3,1,0.,12.0,0.,12.0,0.,12.0,0.,12.0
1979-07-16 03:14:51.290 ,3,0,0.,12.0,0.,12.0,0.,12.0,0.,12.0
1979-07-16 03:15:03.290 ,3,0,0.,12.0,0.,12.0,0.,12.0,0.,12.0
1979-07-16 03:15:15.290 ,4,1,0.,12.0,0.,12.0,0.,12.0,0.,12.0
1979-07-16 03:15:27.290 ,4,1,0.,12.0,0.,12.0,0.,12.0,0.,12.0
1979-07-16 03:15:39.290 ,4,0,0.,12.0,0.,12.0,0.,12.0,0.,12.0
1979-07-16 03:15:51.290 ,4,0,0.,12.0,0.,12.0,0.,12.0,0.,12.0
1979-07-16 03:16:03.290 ,5,1,0.,12.0,0.,12.0,0.,12.0,0.,12.0
1979-07-16 03:16:15.290 ,5,1,0.,12.0,0.,12.0,0.,12.0,0.,12.0
1979-07-16 03:16:27.290 ,5,0,0.,12.0,0.,12.0,0.,12.0,0.,12.0
1979-07-16 03:16:39.290 ,5,0,0.,12.0,0.,12.0,0.,12.0,0.,12.0
1979-07-16 03:16:51.290 ,6,1,0.,12.0,0.,12.0,0.,12.0,0.,12.0
1979-07-16 03:17:03.290 ,6,1,0.,12.0,0.,12.0,0.,12.0,0.,12.0
1979-07-16 03:17:15.290 ,6,0,0.,12.0,0.,12.0,0.,12.0,0.,12.0
1979-07-16 03:17:27.290 ,6,0,0.,12.0,0.,12.0,0.,12.0,0.,12.0
1979-07-16 03:17:39.290 ,7,1,0.,12.0,0.,12.0,0.,12.0,0.,12.0
1979-07-16 03:17:51.290 ,7,1,0.,12.0,0.,12.0,0.,12.0,0.,12.0
1979-07-16 03:18:03.290 ,7,0,0.,12.0,0.,12.0,0.,12.0,0.,12.0
1979-07-16 03:18:15.290 ,7,0,0.,12.0,0.,12.0,0.,12.0,0.,12.0
1979-07-16 03:18:27.290 ,7,1,0.,12.0,0.,12.0,0.,12.0,0.,12.0
1979-07-16 03:18:39.290 ,7,1,0.,12.0,0.,12.0,0.,12.0,0.,12.0
1979-07-16 03:18:51.290 ,7,0,0.,12.0,0.,12.0,0.,12.0,0.,12.0
1979-07-16 03:19:03.290 ,7,0,0.,12.0,0.,12.0,0.,12.0,0.,12.0
1979-07-16 03:19:15.290 ,6,1,0.,12.0,0.,12.0,0.,12.0,0.,12.0
1979-07-16 03:19:27.290 ,6,1,0.,12.0,0.,12.0,0.,12.0,0.,12.0
1979-07-16 03:19:39.290 ,6,0,0.,12.0,0.,12.0,0.,12.0,0.,12.0
1979-07-16 03:19:51.290 ,6,0,0.,12.0,0.,12.0,0.,12.0,0.,12.0
1979-07-16 03:20:03.290 ,5,1,0.,12.0,0.,12.0,0.,12.0,0.,12.0
1979-07-16 03:20:15.290 ,5,1,0.,12.0,0.,12.0,0.,12.0,0.,12.0
1979-07-16 03:20:27.290 ,5,0,0.,12.0,0.,12.0,0.,12.0,0.,12.0
1979-07-16 03:20:39.290 ,5,0,0.,12.0,0.,12.0,0.,12.0,0.,12.0
1979-07-16 03:20:51.290 ,4,1,0.,12.0,0.,12.0,0.,12.0,0.,12.0
1979-07-16 03:21:03.290 ,4,1,0.,12.0,0.,12.0,0.,12.0,0.,12.0
1979-07-16 03:21:15.290 ,0,0,0.,12.0,0.,12.0,0.,12.0,0.,12.0
1979-07-16 03:21:27.290 ,0,0,0.,12.0,0.,12.0,0.,12.0,0.,12.0
1979-07-16 03:21:45.290 ,0,0,,0,,0,,0,,0
1979-07-16 03:21:57.290 ,0,0,0.,12.0,0.,12.0,0.,12.0,0.,12.0
1979-07-16 03:22:03.290 ,0,0,0.,12.0,0.,12.0,0.,12.0,0.,12.0
1979-07-16 03:22:15.290 ,0,0,0.,12.0,0.,12.0,0.,12.0,0.,12.0
1979-07-16 03:22:27.290 ,2,1,0.,12.0,0.,12.0,0.,12.0,0.,12.0
1979-07-16 03:22:39.290 ,2,1,0.,12.0,0.,12.0,0.,12.0,0.,12.0
1979-07-16 03:22:51.290 ,2,0,0.,12.0,0.,12.0,0.,12.0,0.,12.0
1979-07-16 03:23:03.290 ,2,0,0.,12.0,0.,12.0,0.,12.0,0.,12.0
1979-07-16 03:23:15.290 ,1,1,0.,12.0,0.,12.0,0.,12.0,0.,12.0
1979-07-16 03:23:27.290 ,1,1,0.,12.0,0.,12.0,0.,12.0,0.,12.0
1979-07-16 03:23:39.290 ,1,0,0.,12.0,0.,12.0,0.,12.0,0.,12.0
1979-07-16 03:23:51.290 ,1,0,0.,12.0,0.,12.0,0.,12.0,0.,12.0
1979-07-16 03:24:03.290 ,0,1,0.,12.0,0.,12.0,0.,12.0,0.,12.0
1979-07-16 03:24:15.290 ,0,1,0.,12.0,0.,12.0,0.,12.0,0.,12.0
1979-07-16 03:24:27.290 ,0,0,0.,12.0,0.,12.0,0.,12.0,0.,12.0
1979-07-16 03:24:39.290 ,0,0,0.,12.0,0.,12.0,0.,12.0,0.,12.0
1979-07-16 03:24:51.290 ,0,1,0.,12.0,0.,12.0,0.,12.0,0.,12.0
1979-07-16 03:25:03.290 ,0,1,0.,12.0,0.,12.0,0.,12.0,0.,12.0
1979-07-16 03:25:15.290 ,0,0,0.,12.0,0.,12.0,0.,12.0,0.,12.0
1979-07-16 03:25:27.290 ,0,0,0.,12.0,0.,12.0,0.,12.0,0.,12.0
1979-07-16 03:25:39.290 ,1,1,0.,12.0,0.,12.0,0.,12.0,0.,12.0
1979-07-16 03:25:51.290 ,1,1,0.,12.0,0.,12.0,0.,12.0,0.,12.0
1979-07-16 03:26:03.290 ,1,0,0.,12.0,0.,12.0,0.,12.0,0.,12.0
1979-07-16 03:26:15.290 ,1,0,0.,12.0,0.,12.0,0.,12.0,0.,12.0
1979-07-16 03:26:27.290 ,2,1,1.,12.0,0.,12.0,0.,12.0,0.,12.0
1979-07-16 03:26:39.290 ,2,1,1.,12.0,0.,12.0,0.,12.0,0.,12.0
1979-07-16 03:26:51.290 ,2,0,0.,12.0,0.,12.0,0.,12.0,0.,12.0
1979-07-16 03:27:03.290 ,2,0,0.,12.0,0.,12.0,0.,12.0,0.,12.0
1979-07-16 03:27:15.290 ,3,1,0.,12.0,0.,12.0,0.,12.0,0.,12.0
1979-07-16 03:27:27.290 ,3,1,0.,12.0,0.,12.0,0.,12.0,0.,12.0
1979-07-16 03:27:39.290 ,3,0,0.,12.0,0.,12.0,0.,12.0,0.,12.0
1979-07-16 03:27:51.290 ,3,0,0.,12.0,0.,12.0,0.,12.0,0.,12.0
1979-07-16 03:28:03.290 ,4,1,0.,12.0,0.,12.0,0.,12.0,0.,12.0
1979-07-16 03:28:15.290 ,4,1,0.,12.0,0.,12.0,0.,12.0,0.,12.0
1979-07-16 03:28:27.290 ,4,0,0.,12.0,0.,12.0,0.,12.0,0.,12.0
1979-07-16 03:28:39.290 ,4,0,,0,,0,,0,,0
1979-07-16 03:28:51.290 ,5,1,0.,12.0,0.,12.0,0.,12.0,0.,12.0
1979-07-16 03:29:03.290 ,5,1,0.,12.0,0.,12.0,0.,12.0,0.,12.0
1979-07-16 03:29:15.290 ,5,0,0.,12.0,0.,12.0,0.,12.0,0.,12.0
1979-07-16 03:29:27.290 ,5,0,0.,12.0,0.,12.0,0.,12.0,0.,12.0
1979-07-16 03:29:39.290 ,6,1,0.,12.0,0.,12.0,0.,12.0,0.,12.0
1979-07-16 03:29:51.290 ,6,1,0.,12.0,0.,12.0,0.,12.0,0.,12.0
1979-07-16 03:30:03.290 ,6,0,0.,12.0,0.,12.0,0.,12.0,0.,12.0
1979-07-16 03:30:15.290 ,6,0,0.,12.0,0.,12.0,0.,12.0,0.,12.0
1979-07-16 03:30:27.290 ,7,0,0.,12.0,0.,12.0,0.,12.0,0.,12.0
1979-07-16 03:30:39.290 ,7,0,0.,12.0,0.,12.0,0.,12.0,0.,12.0
1979-07-16 03:30:51.290 ,7,0,0.,12.0,0.,12.0,0.,12.0,0.,12.0
1979-07-16 03:31:03.290 ,7,0,0.,12.0,0.,12.0,0.,12.0,0.,12.0
1979-07-16 03:31:15.290 ,4,1,0.,12.0,0.,12.0,0.,12.0,0.,12.0
1979-07-16 03:31:27.290 ,4,1,0.,12.0,0.,12.0,0.,12.0,0.,12.0
1979-07-16 03:31:39.290 ,0,1,0.,12.0,0.,12.0,0.,12.0,0.,12.0
1979-07-16 03:31:51.290 ,0,1,0.,12.0,0.,12.0,0.,12.0,0.,12.0
1979-07-16 03:32:03.290 ,3,1,0.,12.0,0.,12.0,0.,12.0,0.,12.0
1979-07-16 03:32:15.290 ,3,1,0.,12.0,0.,12.0,0.,12.0,0.,12.0
1979-07-16 03:32:27.290 ,7,1,0.,12.0,0.,12.0,0.,12.0,0.,12.0
1979-07-16 03:32:39.290 ,7,1,0.,12.0,0.,12.0,0.,12.0,0.,12.0
1979-07-16 03:32:51.290 ,4,1,0.,12.0,0.,12.0,0.,12.0,0.,12.0
1979-07-16 03:33:03.290 ,4,1,0.,12.0,0.,12.0,0.,12.0,0.,12.0
1979-07-16 03:33:15.290 ,0,1,0.,12.0,0.,12.0,0.,12.0,0.,12.0
1979-07-16 03:33:27.290 ,0,1,0.,12.0,0.,12.0,0.,12.0,0.,12.0
1979-07-16 03:33:39.290 ,3,1,0.,12.0,0.,12.0,0.,12.0,0.,12.0
1979-07-16 03:33:51.290 ,3,1,0.,12.0,0.,12.0,0.,12.0,0.,12.0
1979-07-16 03:34:03.290 ,7,1,0.,12.0,0.,12.0,0.,12.0,0.,12.0
1979-07-16 03:34:15.290 ,7,1,0.,12.0,0.,12.0,0.,12.0,0.,12.0
1979-07-16 03:34:27.290 ,4,1,0.,12.0,0.,12.0,0.,12.0,0.,12.0
1979-07-16 03:34:39.290 ,4,1,0.,12.0,0.,12.0,0.,12.0,0.,12.0
1979-07-16 03:34:51.290 ,0,1,0.,12.0,0.,12.0,0.,12.0,0.,12.0
1979-07-16 03:35:03.290 ,0,1,0.,12.0,0.,12.0,0.,12.0,0.,12.0
1979-07-16 03:35:15.290 ,3,1,0.,12.0,0.,12.0,0.,12.0,0.,12.0
1979-07-16 03:35:27.290 ,3,1,0.,12.0,0.,12.0,0.,12.0,1.,12.0
1979-07-16 03:35:39.290 ,7,1,0.,12.0,0.,12.0,0.,12.0,0.,12.0
1979-07-16 03:35:51.290 ,7,1,0.,12.0,0.,12.0,0.,12.0,0.,12.0
1979-07-16 03:36:03.290 ,4,1,0.,12.0,0.,12.0,0.,12.0,0.,12.0
1979-07-16 03:36:15.290 ,4,1,0.,12.0,0.,12.0,0.,12.0,0.,12.0
1979-07-16 03:36:27.290 ,0,1,0.,12.0,0.,12.0,0.,12.0,0.,12.0
1979-07-16 03:36:39.290 ,0,1,0.,12.0,0.,12.0,0.,12.0,0.,12.0
1979-07-16 03:36:51.290 ,3,1,0.,12.0,0.,12.0,0.,12.0,0.,12.0
1979-07-16 03:37:03.290 ,3,1,0.,12.0,0.,12.0,0.,12.0,0.,12.0
1979-07-16 03:37:15.290 ,7,1,0.,12.0,0.,12.0,0.,12.0,0.,12.0
1979-07-16 03:37:27.290 ,7,1,0.,12.0,0.,12.0,0.,12.0,0.,12.0
1979-07-16 03:37:39.290 ,4,1,0.,12.0,0.,12.0,0.,12.0,0.,12.0
1979-07-16 03:37:51.290 ,4,1,0.,12.0,0.,12.0,0.,12.0,0.,12.0
1979-07-16 03:38:03.290 ,0,1,0.,12.0,0.,12.0,0.,12.0,0.,12.0
1979-07-16 03:38:15.290 ,0,1,0.,12.0,0.,12.0,0.,12.0,0.,12.0
1979-07-16 03:38:27.290 ,3,1,0.,12.0,0.,12.0,0.,12.0,0.,12.0
1979-07-16 03:38:39.290 ,3,1,0.,12.0,0.,12.0,0.,12.0,0.,12.0
1979-07-16 03:38:51.290 ,7,1,0.,12.0,0.,12.0,0.,12.0,0.,12.0
1979-07-16 03:39:03.290 ,7,1,0.,12.0,0.,12.0,0.,12.0,0.,12.0
1979-07-16 03:39:15.290 ,4,1,0.,12.0,0.,12.0,0.,12.0,0.,12.0
1979-07-16 03:39:27.290 ,4,1,0.,12.0,0.,12.0,0.,12.0,0.,12.0
1979-07-16 03:39:39.290 ,0,1,0.,12.0,0.,12.0,0.,12.0,0.,12.0
1979-07-16 03:39:51.290 ,0,1,0.,12.0,0.,12.0,0.,12.0,0.,12.0
1979-07-16 03:40:03.290 ,3,1,0.,12.0,0.,12.0,0.,12.0,0.,12.0
1979-07-16 03:40:15.290 ,3,1,0.,12.0,0.,12.0,0.,12.0,0.,12.0
1979-07-16 03:40:27.290 ,7,1,0.,12.0,0.,12.0,0.,12.0,0.,12.0
1979-07-16 03:40:39.290 ,7,1,0.,12.0,0.,12.0,0.,12.0,0.,12.0
1979-07-16 03:40:51.290 ,4,1,0.,12.0,0.,12.0,0.,12.0,0.,12.0
1979-07-16 03:41:03.290 ,4,1,0.,12.0,0.,12.0,0.,12.0,0.,12.0
1979-07-16 03:41:15.290 ,0,1,0.,12.0,0.,12.0,0.,12.0,0.,12.0
1979-07-16 03:41:27.290 ,0,1,0.,12.0,0.,12.0,0.,12.0,0.,12.0
1979-07-16 03:41:39.290 ,0,0,0.,12.0,0.,12.0,0.,12.0,0.,12.0
1979-07-16 03:41:51.290 ,0,0,0.,12.0,0.,12.0,0.,12.0,0.,12.0
1979-07-16 03:42:03.290 ,0,0,0.,12.0,0.,12.0,0.,12.0,0.,12.0
1979-07-16 03:42:15.290 ,0,0,0.,12.0,0.,12.0,0.,12.0,0.,12.0
1979-07-16 03:42:27.290 ,5,1,0.,12.0,0.,12.0,0.,12.0,0.,12.0
1979-07-16 03:42:39.290 ,5,1,0.,12.0,0.,12.0,0.,12.0,0.,12.0
1979-07-16 03:42:51.290 ,5,0,0.,12.0,0.,12.0,0.,12.0,0.,12.0
1979-07-16 03:43:03.290 ,5,0,0.,12.0,0.,12.0,0.,12.0,0.,12.0
1979-07-16 03:43:15.290 ,4,1,0.,12.0,0.,12.0,0.,12.0,0.,12.0
1979-07-16 03:43:27.290 ,4,1,0.,12.0,0.,12.0,0.,12.0,0.,12.0
1979-07-16 03:43:39.290 ,4,0,0.,12.0,0.,12.0,0.,12.0,0.,12.0
1979-07-16 03:43:51.290 ,4,0,0.,12.0,0.,12.0,0.,12.0,0.,12.0
1979-07-16 03:44:03.290 ,3,1,0.,12.0,0.,12.0,0.,12.0,0.,12.0
1979-07-16 03:44:15.290 ,3,1,0.,12.0,0.,12.0,0.,12.0,0.,12.0
1979-07-16 03:44:27.290 ,3,0,0.,12.0,0.,12.0,0.,12.0,0.,12.0
1979-07-16 03:44:39.290 ,3,0,0.,12.0,0.,12.0,0.,12.0,0.,12.0
1979-07-16 03:44:51.290 ,2,1,0.,12.0,0.,12.0,0.,12.0,0.,12.0
1979-07-16 03:45:03.290 ,2,1,0.,12.0,0.,12.0,0.,12.0,0.,12.0
1979-07-16 03:45:15.290 ,2,0,0.,12.0,0.,12.0,0.,12.0,0.,12.0
1979-07-16 03:45:27.290 ,2,0,0.,12.0,0.,12.0,0.,12.0,0.,12.0
1979-07-16 03:45:39.290 ,1,1,0.,12.0,0.,12.0,0.,12.0,0.,12.0
1979-07-16 03:45:51.290 ,1,1,0.,12.0,0.,12.0,0.,12.0,0.,12.0
1979-07-16 03:46:03.290 ,1,0,0.,12.0,0.,12.0,0.,12.0,0.,12.0
1979-07-16 03:46:15.290 ,1,0,0.,12.0,0.,12.0,0.,12.0,0.,12.0
1979-07-16 03:46:27.290 ,0,1,0.,12.0,0.,12.0,0.,12.0,0.,12.0
1979-07-16 03:46:39.290 ,0,1,0.,12.0,0.,12.0,0.,12.0,0.,12.0
1979-07-16 03:46:51.290 ,0,0,0.,12.0,0.,12.0,0.,12.0,0.,12.0
1979-07-16 03:47:03.290 ,0,0,0.,12.0,0.,12.0,0.,12.0,0.,12.0
1979-07-16 03:47:15.290 ,0,1,0.,12.0,0.,12.0,0.,12.0,0.,12.0
1979-07-16 03:47:27.290 ,0,1,0.,12.0,0.,12.0,0.,12.0,0.,12.0
1979-07-16 03:47:39.290 ,0,0,0.,12.0,0.,12.0,0.,12.0,0.,12.0
1979-07-16 03:47:51.290 ,0,0,0.,12.0,0.,12.0,0.,12.0,0.,12.0
1979-07-16 03:48:03.290 ,1,1,0.,12.0,0.,12.0,0.,12.0,0.,12.0
1979-07-16 03:48:15.290 ,1,1,0.,12.0,0.,12.0,0.,12.0,0.,12.0
1979-07-16 03:48:27.290 ,1,0,0.,12.0,0.,12.0,0.,12.0,0.,12.0
1979-07-16 03:48:39.290 ,1,0,0.,12.0,0.,12.0,0.,12.0,0.,12.0
1979-07-16 03:48:51.290 ,2,1,0.,12.0,0.,12.0,0.,12.0,0.,12.0
1979-07-16 03:49:03.290 ,2,1,0.,12.0,0.,12.0,0.,12.0,0.,12.0
1979-07-16 03:49:15.290 ,2,0,1.,12.0,0.,12.0,0.,12.0,0.,12.0
1979-07-16 03:49:27.290 ,2,0,0.,12.0,0.,12.0,0.,12.0,0.,12.0
1979-07-16 03:49:39.290 ,3,1,1.,12.0,0.,12.0,0.,12.0,0.,12.0
1979-07-16 03:49:51.290 ,3,1,0.,12.0,0.,12.0,0.,12.0,0.,12.0
1979-07-16 03:50:03.290 ,3,0,0.,12.0,0.,12.0,0.,12.0,0.,12.0
1979-07-16 03:50:15.290 ,3,0,0.,12.0,0.,12.0,0.,12.0,0.,12.0
1979-07-16 03:50:27.290 ,4,1,0.,12.0,0.,12.0,0.,12.0,0.,12.0
1979-07-16 03:50:39.290 ,4,1,0.,12.0,0.,12.0,0.,12.0,0.,12.0
1979-07-16 03:50:51.290 ,4,0,0.,12.0,0.,12.0,0.,12.0,0.,12.0
1979-07-16 03:51:03.290 ,4,0,0.,12.0,0.,12.0,0.,12.0,0.,12.0
1979-07-16 03:51:15.290 ,5,1,0.,12.0,0.,12.0,0.,12.0,0.,12.0
1979-07-16 03:51:27.290 ,5,1,0.,12.0,0.,12.0,0.,12.0,0.,12.0
1979-07-16 03:51:39.290 ,5,0,0.,12.0,0.,12.0,0.,12.0,0.,12.0
1979-07-16 03:51:51.290 ,5,0,0.,12.0,0.,12.0,0.,12.0,0.,12.0
1979-07-16 03:52:03.290 ,6,1,0.,12.0,0.,12.0,0.,12.0,0.,12.0
1979-07-16 03:52:15.290 ,6,1,0.,12.0,0.,12.0,0.,12.0,0.,12.0
1979-07-16 03:52:27.290 ,6,0,0.,12.0,0.,12.0,0.,12.0,0.,12.0
1979-07-16 03:52:39.290 ,6,0,0.,12.0,0.,12.0,0.,12.0,0.,12.0
1979-07-16 03:52:51.290 ,7,1,0.,12.0,0.,12.0,0.,12.0,0.,12.0
1979-07-16 03:53:03.290 ,7,1,0.,12.0,0.,12.0,0.,12.0,0.,12.0
1979-07-16 03:53:15.290 ,7,0,0.,12.0,0.,12.0,0.,12.0,0.,12.0
1979-07-16 03:53:27.290 ,7,0,0.,12.0,0.,12.0,0.,12.0,0.,12.0
1979-07-16 03:53:39.290 ,7,1,0.,12.0,0.,12.0,0.,12.0,0.,12.0
1979-07-16 03:53:51.290 ,7,1,0.,12.0,0.,12.0,0.,12.0,0.,12.0
1979-07-16 03:54:03.290 ,7,0,0.,12.0,0.,12.0,0.,12.0,0.,12.0
1979-07-16 03:54:15.290 ,7,0,0.,12.0,0.,12.0,0.,12.0,0.,12.0
1979-07-16 03:54:27.290 ,6,1,0.,12.0,0.,12.0,0.,12.0,0.,12.0
1979-07-16 03:54:39.290 ,6,1,0.,12.0,0.,12.0,0.,12.0,0.,12.0
1979-07-16 04:04:27.290 ,5,0,0.,12.0,0.,12.0,0.,12.0,0.,12.0
1979-07-16 04:04:39.290 ,5,0,0.,12.0,0.,12.0,0.,12.0,0.,12.0
1979-07-16 04:04:51.290 ,6,1,0.,12.0,0.,12.0,0.,12.0,0.,12.0
1979-07-16 04:05:03.290 ,6,1,0.,12.0,0.,12.0,0.,12.0,0.,12.0
1979-07-16 04:05:15.290 ,6,0,0.,12.0,0.,12.0,0.,12.0,0.,12.0
1979-07-16 04:05:27.290 ,6,0,0.,12.0,0.,12.0,0.,12.0,0.,12.0
1979-07-16 04:05:39.290 ,7,1,0.,12.0,0.,12.0,0.,12.0,0.,12.0
1979-07-16 04:05:51.290 ,7,1,0.,12.0,0.,12.0,0.,12.0,0.,12.0
1979-07-16 04:06:03.290 ,7,0,0.,12.0,0.,12.0,0.,12.0,0.,12.0
1979-07-16 04:06:15.290 ,7,0,0.,12.0,0.,12.0,0.,12.0,0.,12.0
1979-07-16 04:06:27.290 ,7,1,0.,12.0,0.,12.0,0.,12.0,0.,12.0
1979-07-16 04:06:39.290 ,7,1,0.,12.0,0.,12.0,0.,12.0,0.,12.0
1979-07-16 04:06:51.290 ,7,0,0.,12.0,0.,12.0,0.,12.0,0.,12.0
1979-07-16 04:07:03.290 ,7,0,0.,12.0,0.,12.0,0.,12.0,0.,12.0
1979-07-16 04:07:15.290 ,6,1,0.,12.0,0.,12.0,0.,12.0,0.,12.0
1979-07-16 04:07:27.290 ,6,1,1.,12.0,0.,12.0,0.,12.0,0.,12.0
1979-07-16 04:07:39.290 ,6,0,0.,12.0,0.,12.0,0.,12.0,0.,12.0
1979-07-16 04:07:51.290 ,6,0,0.,12.0,0.,12.0,0.,12.0,0.,12.0
1979-07-16 04:08:03.290 ,5,1,0.,12.0,0.,12.0,0.,12.0,0.,12.0
1979-07-16 04:08:15.290 ,5,1,1.,12.0,0.,12.0,0.,12.0,0.,12.0
1979-07-16 04:08:27.290 ,5,0,0.,12.0,0.,12.0,0.,12.0,0.,12.0
1979-07-16 04:08:39.290 ,5,0,0.,12.0,0.,12.0,0.,12.0,0.,12.0
1979-07-16 04:08:51.290 ,4,1,0.,12.0,0.,12.0,0.,12.0,0.,12.0
1979-07-16 04:09:03.290 ,4,1,0.,12.0,0.,12.0,0.,12.0,0.,12.0
1979-07-16 04:09:15.290 ,4,0,0.,12.0,0.,12.0,0.,12.0,0.,12.0
1979-07-16 04:09:27.290 ,4,0,0.,12.0,0.,12.0,0.,12.0,0.,12.0
1979-07-16 04:09:39.290 ,3,1,0.,12.0,0.,12.0,0.,12.0,0.,12.0
1979-07-16 04:09:51.290 ,3,1,0.,12.0,0.,12.0,0.,12.0,0.,12.0
1979-07-16 04:10:03.290 ,3,0,0.,12.0,0.,12.0,0.,12.0,0.,12.0
1979-07-16 04:10:15.290 ,3,0,0.,12.0,0.,12.0,0.,12.0,0.,12.0
1979-07-16 04:10:27.290 ,2,1,0.,12.0,0.,12.0,0.,12.0,0.,12.0
1979-07-16 04:10:39.290 ,2,1,0.,12.0,0.,12.0,0.,12.0,0.,12.0
1979-07-16 04:10:51.290 ,2,0,0.,12.0,0.,12.0,0.,12.0,0.,12.0
1979-07-16 04:11:03.290 ,2,0,0.,12.0,0.,12.0,0.,12.0,0.,12.0
1979-07-16 04:11:15.290 ,1,1,0.,12.0,0.,12.0,0.,12.0,0.,12.0
1979-07-16 04:11:27.290 ,1,1,0.,12.0,0.,12.0,0.,12.0,0.,12.0
1979-07-16 04:11:39.290 ,1,0,0.,12.0,0.,12.0,0.,12.0,0.,12.0
1979-07-16 04:11:51.290 ,1,0,0.,12.0,0.,12.0,0.,12.0,0.,12.0
1979-07-16 04:12:03.290 ,0,1,0.,12.0,0.,12.0,0.,12.0,0.,12.0
1979-07-16 04:12:15.290 ,0,1,0.,12.0,0.,12.0,0.,12.0,0.,12.0
1979-07-16 04:12:27.290 ,0,0,0.,12.0,0.,12.0,0.,12.0,0.,12.0
1979-07-16 04:12:39.290 ,0,0,2.,12.0,0.,12.0,0.,12.0,0.,12.0
1979-07-16 04:12:51.290 ,0,1,0.,12.0,0.,12.0,0.,12.0,0.,12.0
1979-07-16 04:13:03.290 ,0,1,0.,12.0,0.,12.0,0.,12.0,0.,12.0
1979-07-16 04:13:15.290 ,0,0,0.,12.0,0.,12.0,0.,12.0,0.,12.0
1979-07-16 04:13:27.290 ,0,0,0.,12.0,0.,12.0,0.,12.0,0.,12.0
1979-07-16 04:13:39.290 ,1,1,0.,12.0,0.,12.0,0.,12.0,0.,12.0
1979-07-16 04:13:51.290 ,1,1,0.,12.0,0.,12.0,0.,12.0,0.,12.0
1979-07-16 04:14:03.290 ,1,0,0.,12.0,0.,12.0,0.,12.0,0.,12.0
1979-07-16 04:14:15.290 ,1,0,0.,12.0,0.,12.0,0.,12.0,0.,12.0
1979-07-16 04:14:27.290 ,2,1,0.,12.0,0.,12.0,0.,12.0,0.,12.0
1979-07-16 04:14:39.290 ,2,1,0.,12.0,0.,12.0,0.,12.0,1.,12.0
1979-07-16 04:14:51.290 ,2,0,0.,12.0,0.,12.0,0.,12.0,0.,12.0
1979-07-16 04:15:03.290 ,2,0,0.,12.0,0.,12.0,0.,12.0,0.,12.0
1979-07-16 04:15:15.290 ,3,1,0.,12.0,0.,12.0,0.,12.0,0.,12.0
1979-07-16 04:15:27.290 ,3,1,0.,12.0,0.,12.0,0.,12.0,0.,12.0
1979-07-16 04:15:39.290 ,3,0,0.,12.0,0.,12.0,0.,12.0,0.,12.0
1979-07-16 04:15:51.290 ,3,0,0.,12.0,0.,12.0,0.,12.0,0.,12.0
1979-07-16 04:16:03.290 ,4,1,0.,12.0,0.,12.0,0.,12.0,0.,12.0
1979-07-16 04:16:15.290 ,4,1,0.,12.0,0.,12.0,0.,12.0,0.,12.0
1979-07-16 04:16:27.290 ,4,0,0.,12.0,0.,12.0,0.,12.0,0.,12.0
1979-07-16 04:16:39.290 ,4,0,0.,12.0,0.,12.0,0.,12.0,0.,12.0
1979-07-16 04:16:51.290 ,5,1,0.,12.0,0.,12.0,0.,12.0,0.,12.0
1979-07-16 04:17:03.290 ,5,1,0.,12.0,0.,12.0,0.,12.0,0.,12.0
1979-07-16 04:17:15.290 ,5,0,0.,12.0,0.,12.0,0.,12.0,0.,12.0
1979-07-16 04:17:27.290 ,5,0,0.,12.0,0.,12.0,0.,12.0,0.,12.0
1979-07-16 04:17:39.290 ,6,1,0.,12.0,0.,12.0,0.,12.0,0.,12.0
1979-07-16 04:17:51.290 ,6,1,0.,12.0,0.,12.0,0.,12.0,0.,12.0
1979-07-16 04:18:03.290 ,6,0,0.,12.0,0.,12.0,0.,12.0,0.,12.0
1979-07-16 04:18:15.290 ,6,0,0.,12.0,0.,12.0,0.,12.0,0.,12.0
1979-07-16 04:18:27.290 ,7,0,0.,12.0,0.,12.0,0.,12.0,0.,12.0
1979-07-16 04:18:39.290 ,7,0,0.,12.0,0.,12.0,0.,12.0,0.,12.0
1979-07-16 04:18:51.290 ,7,0,0.,12.0,0.,12.0,0.,12.0,0.,12.0
1979-07-16 04:19:03.290 ,7,0,0.,12.0,0.,12.0,0.,12.0,0.,12.0
1979-07-16 04:19:15.290 ,4,1,0.,12.0,0.,12.0,0.,12.0,0.,12.0
1979-07-16 04:19:27.290 ,4,1,0.,12.0,0.,12.0,0.,12.0,0.,12.0
1979-07-16 04:19:39.290 ,0,1,0.,12.0,0.,12.0,0.,12.0,0.,12.0
1979-07-16 04:19:51.290 ,0,1,0.,12.0,0.,12.0,0.,12.0,0.,12.0
1979-07-16 04:20:03.290 ,3,1,0.,12.0,0.,12.0,0.,12.0,0.,12.0
1979-07-16 04:20:15.290 ,3,1,0.,12.0,0.,12.0,0.,12.0,0.,12.0
1979-07-16 04:20:27.290 ,7,1,0.,12.0,0.,12.0,0.,12.0,0.,12.0
1979-07-16 04:20:39.290 ,7,1,0.,12.0,0.,12.0,0.,12.0,0.,12.0
1979-07-16 04:20:51.290 ,4,1,0.,12.0,0.,12.0,0.,12.0,0.,12.0
1979-07-16 04:21:03.290 ,4,1,0.,12.0,0.,12.0,0.,12.0,0.,12.0
1979-07-16 04:21:15.290 ,0,1,0.,12.0,0.,12.0,0.,12.0,0.,12.0
1979-07-16 04:21:27.290 ,0,1,0.,12.0,0.,12.0,0.,12.0,0.,12.0
1979-07-16 04:21:39.290 ,3,1,0.,12.0,0.,12.0,0.,12.0,0.,12.0
1979-07-16 04:21:51.290 ,3,1,0.,12.0,0.,12.0,0.,12.0,0.,12.0
1979-07-16 04:22:03.290 ,7,1,0.,12.0,0.,12.0,0.,12.0,0.,12.0
1979-07-16 04:22:15.290 ,7,1,0.,12.0,0.,12.0,0.,12.0,0.,12.0
1979-07-16 04:22:27.290 ,4,1,0.,12.0,0.,12.0,0.,12.0,0.,12.0
1979-07-16 04:22:39.290 ,4,1,0.,12.0,0.,12.0,0.,12.0,0.,12.0
1979-07-16 04:22:51.290 ,0,1,0.,12.0,0.,12.0,0.,12.0,0.,12.0
1979-07-16 04:23:03.290 ,0,1,0.,12.0,0.,12.0,0.,12.0,0.,12.0
1979-07-16 04:23:15.290 ,3,1,0.,12.0,0.,12.0,0.,12.0,0.,12.0
1979-07-16 04:23:27.290 ,3,1,0.,12.0,0.,12.0,0.,12.0,0.,12.0
1979-07-16 04:23:39.290 ,7,1,0.,12.0,0.,12.0,0.,12.0,0.,12.0
1979-07-16 04:23:51.290 ,7,1,0.,12.0,0.,12.0,0.,12.0,0.,12.0
1979-07-16 04:24:03.290 ,4,1,0.,12.0,0.,12.0,0.,12.0,0.,12.0
1979-07-16 04:24:15.290 ,4,1,0.,12.0,0.,12.0,0.,12.0,0.,12.0
1979-07-16 04:24:27.290 ,0,1,0.,12.0,0.,12.0,0.,12.0,0.,12.0
1979-07-16 04:24:39.290 ,0,1,0.,12.0,0.,12.0,0.,12.0,0.,12.0
1979-07-16 04:24:51.290 ,3,1,0.,12.0,0.,12.0,0.,12.0,0.,12.0
1979-07-16 04:25:03.290 ,3,1,0.,12.0,0.,12.0,0.,12.0,0.,12.0
1979-07-16 04:25:15.290 ,7,1,0.,12.0,0.,12.0,0.,12.0,0.,12.0
1979-07-16 04:25:27.290 ,7,1,0.,12.0,0.,12.0,0.,12.0,0.,12.0
1979-07-16 04:25:39.290 ,4,1,0.,12.0,0.,12.0,0.,12.0,0.,12.0
1979-07-16 04:25:51.290 ,4,1,0.,12.0,0.,12.0,0.,12.0,0.,12.0
1979-07-16 04:26:03.290 ,0,1,0.,12.0,0.,12.0,0.,12.0,0.,12.0
1979-07-16 04:26:15.290 ,0,1,0.,12.0,0.,12.0,0.,12.0,0.,12.0
1979-07-16 04:26:27.290 ,3,1,0.,12.0,0.,12.0,0.,12.0,0.,12.0
1979-07-16 04:26:39.290 ,3,1,0.,12.0,0.,12.0,0.,12.0,0.,12.0
1979-07-16 04:26:51.290 ,7,1,0.,12.0,0.,12.0,0.,12.0,0.,12.0
1979-07-16 04:27:03.290 ,7,1,0.,12.0,0.,12.0,0.,12.0,0.,12.0